Wind_Speed
16 17 17 17 18 18 18 19 19 21 24 26 28 29 28 27 26 26 25 24 24 24 25 27 28 28 26 25 25 26 26 26 25 22 20 19 18 16 14 14 15 15 17
17 18 18 19 19 18 18 19 21 22 25 27 27 27 27 26 26 26 24 24 23 23 24 25 26 25 24 23 22 23 25 26 25 23 20 18 17 16 14 14 15 15 16
20 20 19 20 19 19 19 18 20 20 22 24 24 25 25 26 27 26 26 25 24 24 24 24 24 23 22 21 20 21 22 24 26 24 21 19 18 17 15 15 15 15 14
24 23 22 21 20 19 18 19 19 20 21 23 24 24 25 26 26 27 27 27 27 26 26 25 24 24 23 22 21 21 22 24 26 24 21 20 20 18 16 15 14 13 13
26 26 24 23 22 21 20 19 19 19 21 22 23 24 25 27 28 28 28 28 28 29 28 27 27 27 25 23 21 20 20 22 23 23 23 22 21 20 18 16 14 12 12
27 27 26 25 25 24 23 21 21 20 20 21 22 22 23 25 27 29 30 30 30 30 30 30 29 28 26 24 22 20 20 21 22 23 24 23 23 22 19 16 14 12 12
26 26 26 26 27 27 26 25 24 23 22 22 23 22 23 24 26 27 29 29 29 30 31 32 32 30 28 26 23 22 22 22 22 23 23 22 22 22 20 18 16 14 13
25 26 26 26 27 27 27 27 27 26 25 25 25 23 23 23 25 26 27 27 28 28 29 29 30 31 29 28 26 24 23 23 23 24 24 24 25 24 21 19 17 15 14
24 24 24 25 26 27 28 28 28 28 27 27 26 25 24 23 24 25 25 25 26 26 27 26 27 29 29 29 28 27 26 26 25 25 26 27 27 27 24 21 19 17 15
24 24 25 26 28 29 30 30 30 29 29 28 28 27 25 25 25 25 26 26 26 26 27 27 26 26 28 29 30 29 28 28 28 27 27 28 27 27 25 23 20 18 17
26 27 27 28 29 30 31 32 32 31 30 29 28 27 26 26 26 25 25 26 27 27 27 27 26 26 27 28 29 30 30 30 30 30 28 28 28 28 27 25 22 20 18
25 26 27 28 29 30 31 32 32 31 30 29 28 27 26 26 26 24 24 24 25 26 28 29 28 28 27 28 29 29 30 30 31 31 30 29 30 31 31 29 26 23 21
23 24 25 26 27 29 30 31 31 30 28 27 27 26 26 25 25 24 24 25 24 25 27 28 29 29 29 29 29 30 30 31 31 32 31 31 33 35 36 33 30 27 24
21 21 21 21 23 24 25 26 26 26 25 25 25 24 24 24 23 23 23 23 23 23 25 26 28 29 30 29 30 30 30 31 31 32 32 32 35 37 38 37 34 30 28
17 16 16 16 15 14 15 16 18 20 21 22 22 22 22 23 22 21 21 21 20 21 21 23 25 27 28 28 28 29 30 30 29 29 30 31 33 36 38 38 35 33 31
15 14 13 13 10 5 3 8 12 15 17 19 19 20 20 20 20 20 20 20 19 19 20 21 22 23 25 25 25 26 27 28 27 28 29 30 31 33 34 34 34 34 33
13 12 12 11 9 6 5 6 10 12 14 15 16 17 18 18 19 19 19 20 20 20 21 23 24 24 25 25 25 25 25 26 26 27 28 29 28 28 29 30 31 33 34
12 11 11 10 10 8 7 7 8 9 10 11 12 14 15 16 17 17 18 19 20 21 22 24 26 27 28 28 28 27 26 27 27 28 28 28 27 27 27 27 29 31 33
10 10 10 10 9 8 7 6 6 6 7 8 9 11 12 13 14 14 15 16 18 19 21 23 25 27 29 30 30 30 29 29 29 29 29 28 28 27 27 27 30 32 33
8 9 9 9 9 9 8 7 5 4 4 4 6 7 9 10 11 12 12 13 15 17 19 21 24 26 28 29 30 30 31 31 31 31 32 32 32 31 30 31 32 33 33
8 7 7 8 8 8 7 6 5 4 2 1 2 3 5 6 7 8 9 10 11 12 14 15 17 19 22 25 26 27 28 29 30 30 31 32 33 33 33 33 34 34 34
9 8 7 7 7 7 7 6 6 5 4 2 1 0 2 3 4 6 6 7 8 9 10 11 11 12 13 15 18 21 23 24 26 28 29 30 31 32 33 32 33 34 35
9 9 8 7 7 7 7 7 7 6 6 4 3 2 2 3 4 5 5 7 8 9 9 9 9 9 8 8 11 14 17 20 21 23 24 27 28 29 30 31 33 34 35
11 10 10 9 8 8 7 7 7 7 7 6 5 4 4 4 5 6 6 8 8 9 9 9 8 7 6 6 7 9 12 15 17 19 20 22 24 26 28 29 30 32 34
12 12 12 11 11 10 10 9 9 9 9 8 7 7 6 6 7 7 7 8 8 8 8 8 8 7 7 7 7 8 9 12 14 17 18 19 21 23 24 26 27 28 28
13 13 13 13 12 12 12 12 12 11 11 10 10 9 9 9 9 9 9 9 8 8 7 7 7 8 8 8 8 8 9 9 11 14 16 18 19 20 22 23 24 25 25
Wind_Direction
284 277 274 272 270 267 259 252 250 247 242 239 236 234 233 232 234 236 239 241 244 243 240 237 237 241 245 247 250 251 251 251 251 248 248 251 255 257 255 260 270 279 286
288 281 276 272 271 268 262 256 253 255 247 241 240 238 236 234 235 236 238 240 242 239 236 233 234 236 241 245 249 251 250 248 244 242 241 245 250 254 257 264 276 284 287
292 286 281 276 273 268 264 260 256 255 247 243 243 245 242 239 237 238 238 238 238 237 235 233 232 233 237 243 248 250 248 243 242 238 235 241 247 251 256 264 277 282 284
293 289 284 281 278 273 267 262 259 256 252 252 252 252 247 242 240 239 239 238 237 236 235 233 232 233 237 244 248 249 247 244 239 231 234 240 245 250 254 262 271 275 279
290 288 284 281 280 278 274 269 263 258 257 257 256 252 248 243 241 239 240 240 238 237 235 233 233 234 239 244 246 244 241 235 233 234 240 244 246 249 251 258 264 268 273
285 283 281 279 278 277 275 270 265 261 258 256 253 251 247 244 242 240 240 239 239 238 236 235 235 237 239 243 243 238 234 239 243 245 247 248 247 246 247 253 257 259 264
282 280 278 275 274 273 272 269 266 263 259 256 253 252 251 248 243 239 237 237 237 236 235 235 236 236 238 239 239 237 236 241 247 248 247 248 246 242 244 248 248 249 253
279 277 274 271 269 267 266 265 264 263 260 256 253 252 252 249 244 239 236 235 234 233 234 235 237 235 233 235 236 236 236 238 243 244 243 246 245 238 242 248 246 243 245
280 276 273 271 269 267 265 264 263 261 259 255 252 250 250 249 245 240 235 233 232 230 229 231 233 232 229 230 232 234 235 236 239 241 243 246 243 235 236 243 245 241 241
282 279 276 273 270 268 266 264 263 261 258 254 251 249 247 245 243 241 237 234 231 227 226 226 227 230 230 231 233 234 235 236 238 242 246 249 242 231 230 238 243 241 239
286 283 280 275 271 267 264 262 260 258 254 251 249 247 244 242 240 241 240 235 232 229 227 227 227 229 232 234 235 236 236 237 239 239 245 244 238 232 232 236 239 240 240
291 287 283 278 273 268 263 260 257 254 252 249 246 242 240 239 238 239 240 236 233 230 230 230 231 233 234 235 236 238 240 241 240 238 239 240 236 233 234 237 238 240 240
299 294 289 283 277 270 263 256 252 249 247 243 239 237 235 236 236 238 240 239 238 236 235 236 235 235 237 237 239 242 244 244 243 240 239 239 236 235 237 239 240 241 241
309 305 300 293 284 274 263 253 245 238 234 231 230 229 229 230 233 236 238 239 239 240 241 240 238 238 239 240 243 245 246 246 245 241 239 239 237 235 237 240 240 240 241
325 324 322 317 306 285 259 241 229 221 218 218 220 222 222 225 228 231 233 233 236 239 240 240 241 241 242 244 245 245 245 245 244 241 239 239 236 236 237 237 238 238 240
346 347 347 348 346 333 231 203 202 201 203 207 212 215 218 221 225 227 227 228 233 238 240 241 243 245 246 246 246 246 244 242 242 240 238 240 239 237 237 237 235 236 238
3 6 9 15 28 54 107 150 170 182 192 201 208 212 215 218 222 224 225 230 236 242 244 246 248 250 251 250 250 249 246 241 241 239 236 238 239 235 231 232 233 236 238
17 22 27 37 49 67 92 125 151 169 184 196 205 210 213 217 221 226 231 237 243 248 252 254 254 254 254 254 253 251 247 241 239 237 236 236 236 234 233 233 235 237 239
28 34 41 49 57 68 82 101 126 153 175 190 202 210 215 221 227 233 240 246 252 257 260 261 260 258 257 255 253 250 247 243 239 237 236 235 236 235 237 239 240 241 241
36 44 51 56 62 67 74 84 99 121 157 191 212 222 228 233 239 244 250 255 260 265 267 268 267 264 260 256 253 249 245 242 240 238 237 237 238 240 241 242 243 244 245
45 51 56 59 62 64 65 64 64 69 88 151 206 226 236 242 246 250 257 264 271 277 279 279 278 273 264 257 252 248 243 240 238 237 236 237 238 240 242 244 246 247 250
51 55 58 61 62 60 56 48 43 40 41 45 53 248 254 255 257 262 270 279 288 296 300 296 294 289 276 260 250 243 239 237 237 237 236 237 239 240 242 245 247 250 253
48 50 52 53 52 51 49 46 41 37 34 33 29 14 349 331 317 307 299 300 302 305 307 307 308 303 291 274 254 242 236 234 235 237 238 237 238 241 245 249 251 252 256
45 46 45 44 41 40 37 36 34 32 31 30 27 19 7 353 342 332 321 313 310 310 310 308 308 309 300 285 268 250 242 239 238 240 241 241 241 243 246 252 256 257 260
44 42 41 41 40 39 38 37 37 36 36 35 32 26 18 5 353 343 335 329 325 321 318 312 306 304 301 289 278 267 257 249 246 245 246 246 245 247 251 255 258 260 261
46 45 45 44 44 44 44 45 44 43 41 38 32 24 17 9 3 356 349 345 342 339 336 328 316 304 297 288 277 268 263 258 254 252 250 250 250 253 255 257 259 259 260
Height
5780 5779 5778 5777 5777 5776 5777 5777 5778 5780 5781 5783 5784 5787 5789 5791 5793 5796 5798 5801 5803 5806 5808 5810 5813 5816 5818 5820 5822 5823 5825 5827 5828 5830 5831 5832 5832 5833 5835 5835 5835 5835 5835
5776 5775 5774 5772 5772 5771 5771 5772 5773 5774 5775 5777 5778 5780 5782 5784 5787 5790 5792 5795 5797 5799 5801 5804 5806 5809 5812 5814 5816 5817 5818 5820 5822 5824 5826 5827 5828 5829 5830 5831 5830 5830 5829
5772 5770 5769 5768 5767 5766 5766 5766 5767 5768 5769 5771 5773 5775 5777 5779 5781 5784 5786 5789 5792 5794 5796 5798 5801 5804 5806 5808 5810 5811 5812 5814 5816 5819 5821 5822 5823 5823 5825 5826 5825 5825 5824
5766 5765 5764 5763 5762 5761 5761 5761 5762 5763 5764 5765 5767 5769 5770 5773 5775 5777 5780 5783 5785 5788 5790 5793 5795 5798 5800 5802 5804 5805 5806 5808 5810 5813 5816 5817 5817 5818 5819 5820 5820 5820 5820
5760 5758 5757 5756 5756 5755 5755 5755 5756 5756 5758 5759 5760 5762 5764 5766 5768 5770 5773 5775 5778 5781 5784 5786 5789 5792 5794 5796 5798 5800 5801 5803 5805 5808 5810 5811 5812 5813 5814 5815 5815 5815 5815
5753 5751 5750 5749 5748 5748 5747 5748 5749 5749 5751 5752 5753 5755 5756 5758 5760 5762 5765 5768 5771 5774 5776 5780 5782 5785 5788 5790 5792 5794 5797 5799 5800 5802 5804 5806 5807 5808 5809 5810 5810 5811 5811
5746 5744 5743 5741 5740 5740 5740 5740 5741 5742 5743 5745 5746 5748 5749 5750 5752 5754 5757 5760 5763 5766 5769 5772 5776 5778 5781 5784 5786 5789 5791 5793 5795 5797 5798 5800 5801 5803 5804 5805 5805 5806 5807
5738 5736 5735 5734 5732 5732 5732 5732 5733 5734 5736 5737 5739 5741 5742 5743 5745 5747 5750 5753 5756 5759 5762 5765 5767 5770 5774 5776 5779 5782 5785 5786 5788 5790 5792 5794 5796 5798 5800 5801 5801 5802 5802
5729 5728 5726 5725 5724 5723 5723 5723 5724 5726 5727 5729 5731 5733 5735 5736 5738 5741 5743 5746 5749 5752 5754 5757 5759 5762 5766 5769 5773 5776 5778 5780 5782 5783 5785 5787 5789 5792 5794 5795 5796 5797 5797
5721 5720 5718 5717 5715 5715 5714 5714 5715 5717 5719 5720 5723 5725 5728 5730 5732 5734 5737 5739 5742 5744 5747 5750 5752 5755 5758 5761 5765 5768 5771 5773 5775 5777 5779 5780 5782 5785 5788 5789 5791 5791 5792
5713 5711 5709 5707 5706 5705 5704 5704 5705 5707 5709 5711 5714 5717 5720 5723 5725 5728 5730 5732 5735 5737 5740 5743 5745 5748 5750 5754 5757 5760 5763 5765 5767 5769 5771 5773 5775 5778 5781 5783 5785 5786 5786
5703 5701 5698 5696 5694 5693 5693 5693 5694 5696 5699 5702 5706 5709 5712 5716 5719 5721 5724 5726 5728 5730 5733 5736 5738 5741 5744 5747 5750 5752 5755 5757 5759 5761 5763 5766 5768 5771 5773 5776 5778 5779 5780
5695 5691 5688 5685 5683 5682 5681 5682 5684 5687 5690 5694 5698 5702 5705 5709 5712 5715 5718 5720 5722 5724 5726 5729 5732 5735 5737 5740 5742 5745 5747 5749 5750 5753 5755 5758 5760 5763 5765 5768 5771 5772 5774
5687 5683 5680 5676 5673 5670 5669 5671 5674 5678 5682 5687 5691 5695 5699 5703 5706 5709 5712 5714 5716 5718 5720 5723 5725 5727 5730 5732 5734 5736 5738 5740 5742 5744 5746 5749 5751 5754 5757 5760 5762 5764 5766
5682 5678 5673 5669 5664 5661 5661 5663 5667 5671 5676 5681 5685 5690 5694 5697 5701 5704 5706 5709 5711 5713 5715 5716 5718 5720 5722 5724 5726 5728 5730 5731 5733 5735 5738 5740 5743 5745 5748 5750 5753 5756 5758
5679 5675 5671 5666 5662 5659 5659 5661 5664 5669 5673 5678 5682 5686 5690 5693 5696 5699 5702 5704 5706 5708 5710 5711 5712 5714 5715 5717 5719 5720 5722 5723 5725 5727 5729 5732 5734 5736 5738 5741 5744 5747 5750
5678 5675 5671 5668 5665 5663 5662 5663 5666 5669 5673 5677 5680 5683 5687 5690 5693 5696 5698 5700 5701 5703 5704 5705 5706 5708 5709 5710 5711 5712 5714 5715 5717 5719 5722 5724 5726 5728 5730 5733 5736 5739 5742
5679 5676 5673 5671 5669 5667 5667 5667 5669 5671 5674 5676 5679 5682 5685 5687 5690 5692 5694 5695 5697 5697 5698 5699 5699 5700 5701 5702 5703 5704 5706 5708 5710 5712 5714 5717 5719 5721 5724 5726 5729 5732 5734
5680 5678 5676 5674 5672 5671 5671 5671 5672 5673 5675 5677 5679 5681 5683 5684 5686 5688 5689 5690 5691 5691 5691 5691 5691 5691 5692 5693 5694 5696 5698 5700 5702 5705 5707 5709 5712 5715 5717 5719 5722 5724 5726
5682 5680 5679 5677 5676 5675 5674 5674 5675 5675 5676 5677 5678 5679 5680 5682 5683 5684 5685 5685 5685 5685 5684 5684 5683 5682 5682 5683 5684 5686 5689 5691 5694 5697 5699 5702 5704 5707 5709 5711 5714 5716 5718
5683 5682 5681 5680 5679 5678 5677 5677 5677 5677 5677 5677 5677 5678 5678 5679 5679 5680 5680 5681 5680 5679 5678 5677 5675 5673 5673 5673 5675 5677 5679 5682 5685 5688 5691 5694 5696 5699 5701 5703 5705 5707 5709
5685 5683 5682 5681 5680 5679 5679 5678 5678 5677 5677 5677 5677 5677 5677 5677 5677 5677 5677 5677 5676 5675 5673 5671 5669 5668 5666 5666 5667 5669 5671 5674 5677 5680 5683 5685 5688 5691 5693 5695 5697 5698 5700
5687 5685 5684 5683 5682 5681 5680 5679 5678 5677 5677 5676 5676 5676 5675 5675 5675 5674 5674 5673 5672 5671 5669 5668 5666 5664 5663 5663 5663 5664 5666 5669 5671 5674 5676 5678 5681 5683 5685 5687 5688 5689 5690
5689 5687 5686 5684 5683 5682 5681 5680 5679 5678 5677 5676 5675 5675 5674 5674 5673 5672 5671 5670 5669 5668 5666 5665 5663 5662 5661 5661 5661 5662 5663 5664 5667 5669 5671 5673 5674 5676 5678 5679 5680 5681 5681
5691 5690 5688 5686 5685 5683 5682 5681 5680 5678 5677 5676 5675 5674 5673 5672 5671 5670 5669 5667 5666 5664 5663 5662 5661 5660 5660 5659 5659 5659 5660 5661 5662 5664 5665 5667 5668 5669 5671 5672 5672 5672 5671
5694 5692 5690 5689 5687 5685 5684 5682 5681 5680 5678 5677 5676 5674 5673 5671 5670 5668 5667 5665 5663 5662 5661 5660 5659 5658 5657 5656 5656 5657 5657 5658 5658 5659 5660 5661 5662 5663 5664 5664 5664 5664 5664